COMS 1

Last updated on Wed Sep 02 2026 00:02:39 GMT+0000 (Coordinated Universal Time)

1 36744U 10032A 26244.46038537 -.00000272 00000+0 00000+0 0 9994 2 36744 4.9944 74.3972 0010529 19.9969 182.0466 0.99167922 51848
UTC large
Height (km)
Speed (km/s)
/
Latitude / Longitude
Inclination (degrees)
Orbital Period (minutes)
Azimuth
Elevation
Range (km)
Doppler Factor

Next 0 passes for location: London (51.5072 / 0.1276)

No passes found over London.
COMS 1